Wind_Speed
20 21 22 22 22 22 23 23 24 24 24 25 25 25 26 27 27 27 27 28 29 29 29 29 29 29 29 30 31 32 33 32 33 34 35 35 35 36
20 21 22 22 23 23 25 25 25 26 26 27 27 27 27 28 28 28 28 28 29 29 29 29 29 30 30 31 31 31 32 32 33 34 35 35 36 37
21 21 21 21 23 24 25 25 25 26 26 26 27 26 27 27 27 27 28 29 29 29 30 31 31 32 32 31 31 32 31 32 33 33 35 36 37 38
19 20 20 21 21 22 23 24 24 25 25 25 26 25 26 25 25 26 27 27 28 28 29 30 31 32 32 32 32 33 33 33 33 33 35 36 37 38
18 19 19 20 21 21 22 22 22 23 24 24 24 24 24 25 25 25 26 27 27 28 29 30 31 31 32 32 33 33 33 32 33 34 35 36 38 39
19 19 19 19 20 20 21 21 21 21 22 23 23 24 24 25 26 26 26 26 27 27 28 29 29 30 30 31 32 32 32 32 33 34 35 37 38 40
18 18 19 19 19 20 20 21 21 21 22 23 23 24 24 25 25 26 26 26 26 27 27 27 28 28 29 30 30 30 31 32 33 34 35 36 37 38
17 17 18 18 18 18 18 19 20 21 22 23 24 24 24 24 24 25 25 25 26 26 26 27 27 27 27 27 28 29 31 32 33 34 34 35 36 37
17 17 17 17 16 17 17 18 18 19 21 22 22 22 23 23 23 24 24 25 25 25 25 25 26 25 25 26 26 27 28 28 29 30 32 33 34 35
16 16 16 16 16 16 16 17 18 20 20 21 21 21 22 22 22 22 23 24 24 24 24 24 25 25 25 25 26 27 27 28 28 29 29 30 32 33
15 15 15 15 16 16 17 18 18 19 19 20 20 20 20 21 22 23 24 24 24 24 25 25 25 26 26 26 26 27 27 28 28 29 29 30 31 32
16 16 17 17 17 17 17 18 18 18 19 20 20 21 21 22 23 24 24 24 24 25 25 26 26 26 26 26 26 27 28 29 29 29 29 30 30 30
17 17 17 17 17 17 17 18 18 19 19 19 20 21 22 23 23 24 24 24 24 25 25 26 26 26 27 26 27 28 28 29 30 30 30 30 29 29
17 16 16 16 17 17 17 18 18 18 18 19 19 20 20 21 22 23 23 23 24 25 26 26 26 27 28 28 29 29 29 30 29 29 28 28 27 27
16 16 16 16 16 16 16 17 17 17 17 18 19 20 21 22 22 22 23 24 24 25 26 27 27 28 28 29 29 29 29 28 28 27 27 27 26 27
16 16 16 16 16 16 16 17 18 18 19 20 20 21 22 23 23 23 24 24 25 25 25 26 27 28 29 29 29 29 28 27 27 27 27 28 27 26
16 16 16 17 17 17 17 17 17 18 19 20 20 21 22 23 23 23 24 24 25 25 25 26 27 28 28 28 28 27 27 27 27 27 27 27 27 27
17 17 18 19 19 18 18 17 18 18 19 20 20 21 22 23 23 23 24 24 25 25 25 26 26 26 26 25 25 25 25 26 26 26 27 26 26 26
17 18 19 19 19 19 18 18 19 20 20 21 21 21 23 23 23 23 24 24 24 24 25 26 26 26 25 24 23 25 25 25 25 25 25 26 26 25
17 18 18 18 18 18 19 20 20 21 21 21 21 22 23 23 24 24 24 24 25 25 26 26 27 27 26 24 24 24 25 25 25 25 24 24 24 24
18 19 19 19 19 20 20 21 21 22 22 22 22 23 24 24 25 25 25 25 25 26 26 26 27 26 25 25 25 24 25 25 25 24 24 23 23 23
19 19 19 20 21 21 21 21 22 23 23 24 24 24 25 25 25 25 26 26 26 26 26 27 26 26 26 25 24 23 23 23 23 23 22 22 22 21
20 21 21 21 21 21 21 22 23 23 23 24 24 25 25 25 25 26 26 26 26 26 27 26 26 26 25 24 24 23 23 22 22 21 20 20 20 21
Wind_Direction
279 276 273 272 271 270 271 272 271 272 274 274 275 274 273 273 273 273 272 272 272 273 274 273 273 273 275 275 274 272 269 266 264 262 260 257 255 255
281 279 276 272 271 271 272 273 273 274 273 275 276 275 276 276 275 274 274 274 274 275 274 274 273 273 274 274 274 274 272 268 265 263 260 258 256 255
286 283 280 275 273 272 273 274 275 276 276 275 275 275 276 277 277 277 276 276 275 274 273 274 274 275 275 275 274 273 272 269 266 263 261 260 258 256
292 288 283 279 278 278 278 279 279 277 277 276 277 277 277 280 278 277 278 278 277 276 276 276 277 277 276 276 274 274 273 271 268 264 261 259 259 257
295 293 288 284 282 281 281 281 280 278 279 280 279 279 280 281 282 281 281 280 278 279 280 280 280 280 279 278 277 276 274 272 270 267 263 261 259 258
297 294 289 288 285 283 280 278 280 280 279 280 280 280 280 281 282 283 282 280 279 280 281 282 283 283 282 281 279 277 276 273 270 268 266 264 261 260
299 297 292 289 286 285 282 280 280 281 281 281 282 283 283 283 284 284 283 282 281 282 283 283 283 283 283 283 280 279 277 274 272 271 269 266 264 262
301 301 298 294 291 288 286 284 284 285 285 285 284 284 285 285 285 286 286 284 283 282 283 284 283 285 286 284 284 283 280 278 276 274 272 269 267 263
303 303 300 296 291 290 288 287 289 289 289 289 290 288 287 288 287 287 287 286 286 286 285 287 286 286 287 287 285 285 284 282 280 276 274 272 269 266
309 306 302 297 295 292 290 292 292 293 293 293 292 290 289 289 288 288 290 290 289 289 289 290 289 288 288 288 287 287 286 283 282 280 277 274 271 267
315 313 309 303 300 296 294 294 295 295 294 294 294 293 291 291 292 291 291 291 290 289 289 290 290 289 288 288 288 287 286 284 283 281 280 277 274 270
315 312 307 305 305 303 301 301 300 299 298 297 297 295 294 294 293 294 294 294 292 291 291 292 292 290 289 290 290 289 288 286 285 284 283 281 277 272
314 311 308 305 305 305 304 303 302 300 298 298 299 298 295 293 293 294 296 297 294 294 294 295 294 292 291 291 292 291 290 289 287 285 283 281 278 274
314 312 311 310 308 305 303 304 302 301 300 300 301 301 301 300 299 298 298 299 297 295 296 296 295 294 292 291 292 292 290 291 291 289 286 283 279 275
315 314 314 313 313 310 307 308 307 305 306 307 307 305 305 304 303 302 301 302 301 300 298 296 296 296 296 295 295 294 293 291 290 289 287 285 282 277
323 321 319 320 317 315 312 312 311 309 308 308 309 309 308 306 306 306 305 304 304 303 301 300 299 298 298 296 295 294 292 290 290 289 288 286 283 279
323 322 319 318 317 316 316 317 315 314 313 312 312 312 312 311 309 308 308 308 308 307 306 305 304 303 302 299 297 294 292 291 290 289 287 284 282 279
319 319 317 316 316 318 318 318 318 318 318 316 314 313 313 313 312 311 311 311 311 311 312 312 310 308 306 303 299 296 294 292 291 290 288 284 281 279
315 316 316 316 316 317 317 317 317 317 318 319 319 318 317 316 315 314 313 313 314 315 316 315 314 312 311 308 304 301 298 295 292 291 289 287 283 280
312 314 316 318 318 317 316 315 316 316 317 316 317 316 317 317 316 315 315 315 316 317 318 316 315 314 313 310 308 306 303 300 296 292 290 287 285 282
311 312 314 315 316 315 315 314 314 314 315 316 316 315 315 315 316 315 316 316 317 318 318 316 315 314 313 311 309 306 305 303 299 295 292 288 286 284
310 311 312 312 313 313 312 311 311 312 314 315 315 314 314 315 315 316 317 316 317 317 317 317 315 314 313 312 311 309 307 306 304 301 295 290 288 285
305 307 309 310 310 311 312 314 313 312 313 314 314 313 314 315 316 318 318 319 319 319 319 318 316 315 315 314 314 313 311 309 308 305 301 295 290 287
Height
5794 5794 5794 5794 5794 5794 5795 5796 5796 5796 5797 5797 5796 5796 5796 5796 5796 5796 5795 5795 5795 5795 5795 5795 5795 5795 5794 5794 5794 5794 5794 5794 5795 5796 5798 5800 5802 5804
5788 5788 5788 5788 5788 5788 5789 5789 5789 5790 5790 5790 5789 5789 5788 5788 5788 5788 5788 5788 5787 5787 5787 5787 5786 5786 5786 5785 5785 5785 5784 5784 5785 5786 5788 5789 5791 5793
5782 5782 5781 5781 5782 5782 5782 5782 5783 5783 5783 5783 5782 5781 5781 5781 5780 5780 5780 5780 5779 5779 5779 5779 5778 5778 5777 5776 5776 5775 5775 5775 5775 5776 5777 5779 5781 5783
5777 5776 5776 5775 5775 5775 5776 5776 5776 5776 5776 5775 5775 5774 5774 5773 5773 5772 5772 5771 5771 5770 5770 5770 5769 5769 5768 5767 5767 5766 5766 5765 5765 5766 5767 5768 5770 5772
5772 5771 5770 5770 5769 5769 5769 5770 5769 5769 5769 5768 5768 5767 5767 5766 5766 5765 5764 5764 5763 5762 5762 5761 5760 5760 5759 5758 5757 5757 5756 5756 5756 5756 5756 5757 5759 5760
5766 5765 5764 5764 5763 5763 5763 5763 5763 5762 5762 5762 5761 5761 5761 5760 5759 5758 5757 5756 5755 5754 5754 5752 5752 5751 5750 5749 5748 5747 5746 5746 5746 5746 5746 5746 5747 5749
5762 5760 5759 5758 5758 5757 5757 5757 5757 5756 5756 5755 5754 5754 5753 5752 5752 5750 5750 5748 5747 5746 5745 5744 5743 5742 5741 5740 5738 5737 5737 5736 5736 5736 5735 5735 5736 5736
5757 5756 5755 5753 5753 5752 5752 5752 5751 5751 5750 5749 5748 5747 5747 5745 5744 5743 5742 5741 5740 5739 5737 5736 5735 5734 5732 5731 5730 5728 5727 5726 5725 5724 5724 5724 5724 5724
5753 5752 5750 5749 5748 5747 5747 5747 5746 5745 5744 5743 5742 5741 5740 5739 5738 5736 5735 5733 5732 5731 5729 5729 5727 5726 5724 5723 5722 5720 5718 5716 5715 5714 5713 5712 5712 5712
5749 5748 5746 5745 5743 5743 5742 5741 5741 5739 5738 5737 5736 5735 5733 5732 5731 5730 5728 5726 5725 5723 5722 5721 5720 5718 5717 5715 5713 5712 5710 5708 5706 5705 5703 5702 5701 5701
5746 5744 5742 5741 5740 5738 5738 5737 5736 5734 5733 5731 5730 5729 5727 5726 5725 5723 5721 5720 5718 5717 5715 5714 5712 5710 5709 5707 5705 5703 5701 5699 5697 5695 5693 5692 5690 5690
5742 5741 5739 5737 5735 5734 5733 5731 5730 5729 5728 5726 5724 5723 5721 5720 5718 5716 5714 5713 5711 5709 5708 5706 5704 5702 5701 5699 5697 5695 5692 5690 5688 5686 5684 5682 5681 5680
5739 5737 5734 5733 5731 5730 5728 5727 5725 5724 5723 5721 5719 5717 5715 5714 5712 5710 5708 5705 5703 5702 5700 5698 5696 5693 5692 5691 5689 5686 5684 5681 5679 5677 5674 5672 5671 5670
5735 5733 5730 5728 5727 5725 5724 5722 5721 5719 5718 5716 5714 5712 5710 5708 5706 5703 5701 5698 5696 5694 5692 5690 5688 5685 5683 5682 5680 5678 5675 5672 5669 5667 5665 5663 5662 5661
5732 5729 5727 5725 5723 5721 5720 5718 5717 5715 5713 5711 5709 5707 5704 5702 5699 5697 5694 5691 5689 5686 5684 5682 5680 5677 5674 5672 5670 5667 5665 5663 5660 5658 5656 5655 5653 5652
5728 5726 5724 5722 5720 5718 5716 5714 5712 5710 5708 5706 5704 5701 5699 5696 5693 5690 5688 5685 5683 5680 5677 5674 5671 5668 5666 5663 5660 5658 5655 5653 5651 5649 5647 5646 5644 5644
5725 5724 5722 5720 5718 5715 5713 5711 5708 5706 5703 5700 5698 5696 5693 5690 5688 5685 5682 5679 5676 5673 5670 5667 5663 5660 5657 5654 5651 5648 5646 5644 5642 5639 5638 5636 5635 5634
5723 5721 5718 5716 5714 5712 5709 5707 5705 5702 5699 5696 5693 5691 5688 5685 5682 5679 5676 5672 5669 5666 5663 5660 5656 5653 5650 5646 5643 5640 5638 5635 5633 5631 5629 5627 5627 5626
5719 5717 5715 5713 5710 5708 5706 5704 5701 5699 5696 5693 5689 5686 5683 5680 5677 5673 5670 5667 5663 5660 5657 5653 5649 5645 5642 5640 5636 5632 5630 5627 5624 5622 5620 5619 5618 5617
5716 5714 5711 5709 5706 5704 5702 5700 5697 5694 5691 5688 5685 5682 5679 5675 5672 5669 5665 5662 5658 5654 5650 5646 5642 5638 5635 5632 5629 5626 5622 5619 5616 5614 5612 5611 5609 5608
5711 5709 5707 5705 5702 5700 5697 5695 5692 5689 5686 5683 5680 5677 5674 5670 5667 5663 5660 5656 5652 5648 5644 5640 5636 5632 5628 5625 5622 5619 5615 5611 5609 5606 5604 5603 5602 5601
5707 5705 5703 5700 5697 5695 5692 5690 5687 5684 5681 5678 5675 5672 5668 5665 5661 5658 5654 5650 5646 5642 5638 5634 5629 5625 5622 5618 5615 5611 5608 5605 5602 5599 5597 5595 5594 5593
5702 5700 5698 5695 5692 5690 5687 5684 5682 5679 5676 5673 5670 5666 5663 5659 5656 5652 5648 5644 5640 5636 5631 5627 5623 5619 5615 5611 5608 5605 5601 5598 5595 5593 5591 5588 5587 5586